When you browse on this site, cookies collect data to enhance your experience and personalize the content and advertising you see.
Visit our Privacy Policy to learn more. By continuing to use the site, you agree to this use of cookies and data.
  • In Österreich
  • Länderverzeichnis
  • Für 7 Tage
  • Wassertemperatur
  • Satellitenkarten
  • Wetterkarte
  • News
  • Widgets
  • user-avatar
    Anmelden

    Stündliche Wetter Boma

    Heute, 22 April, Montag

    Zeit Temperatur Niederschläge Wind Luftdruck Luftfeuchtigkeit
    00:00 +23°C° 3.1 mm 1 m/S 699 mmHg 97%
    01:00 +23°C° 0 mm 1 m/S 700 mmHg 98%
    02:00 +21°C° 0.4 mm 0 m/S 699 mmHg 98%
    03:00 +21°C° 0.4 mm 0 m/S 699 mmHg 98%
    04:00 +21°C° 0.4 mm 0 m/S 699 mmHg 98%
    05:00 +21°C° 0 mm 0 m/S 699 mmHg 97%
    06:00 +21°C° 0 mm 0 m/S 699 mmHg 97%
    07:00 +22°C° 0 mm 0 m/S 699 mmHg 95%
    08:00 +24°C° 0 mm 0 m/S 700 mmHg 83%
    09:00 +27°C° 0 mm 0 m/S 700 mmHg 72%
    10:00 +29°C° 0 mm 0 m/S 700 mmHg 61%
    11:00 +31°C° 0 mm 0 m/S 700 mmHg 54%
    12:00 +33°C° 0 mm 0 m/S 700 mmHg 48%
    13:00 +35°C° 0 mm 0 m/S 699 mmHg 41%
    14:00 +34°C° 0 mm 0 m/S 699 mmHg 41%
    15:00 +35°C° 0 mm 1 m/S 698 mmHg 40%
    16:00 +35°C° 0 mm 1 m/S 698 mmHg 40%
    17:00 +33°C° 0 mm 1 m/S 697 mmHg 48%
    18:00 +28°C° 0 mm 0 m/S 697 mmHg 56%
    19:00 +26°C° 0 mm 0 m/S 697 mmHg 64%
    20:00 +25°C° 0 mm 0 m/S 698 mmHg 66%
    21:00 +25°C° 0 mm 0 m/S 698 mmHg 69%
    22:00 +24°C° 0 mm 0 m/S 698 mmHg 71%
    23:00 +24°C° 0 mm 0 m/S 698 mmHg 74%

    Morgen, 23 April, Dienstag

    Zeit Temperatur Niederschläge Wind Luftdruck Luftfeuchtigkeit
    00:00 +25°C° 0 mm 1 m/S 698 mmHg 76%
    01:00 +25°C° 0 mm 1 m/S 698 mmHg 79%
    02:00 +24°C° 0 mm 1 m/S 698 mmHg 83%
    03:00 +24°C° 0 mm 1 m/S 698 mmHg 88%
    04:00 +22°C° 0 mm 0 m/S 698 mmHg 92%
    05:00 +24°C° 0 mm 1 m/S 698 mmHg 92%
    06:00 +24°C° 0 mm 1 m/S 699 mmHg 92%
    07:00 +25°C° 0 mm 1 m/S 699 mmHg 91%
    08:00 +27°C° 0 mm 1 m/S 699 mmHg 80%
    09:00 +30°C° 0 mm 1 m/S 700 mmHg 68%
    10:00 +32°C° 0 mm 1 m/S 701 mmHg 57%
    11:00 +34°C° 0 mm 1 m/S 700 mmHg 50%
    12:00 +37°C° 0 mm 1 m/S 700 mmHg 42%
    13:00 +37°C° 0 mm 0 m/S 700 mmHg 35%
    14:00 +39°C° 0 mm 1 m/S 699 mmHg 34%
    15:00 +39°C° 0 mm 1 m/S 699 mmHg 33%
    16:00 +37°C° 0 mm 1 m/S 698 mmHg 33%
    17:00 +34°C° 0 mm 1 m/S 698 mmHg 42%
    18:00 +32°C° 0 mm 1 m/S 698 mmHg 52%
    19:00 +27°C° 0 mm 0 m/S 698 mmHg 62%
    20:00 +26°C° 0 mm 0 m/S 698 mmHg 67%
    21:00 +27°C° 0 mm 1 m/S 699 mmHg 73%
    22:00 +27°C° 0 mm 1 m/S 700 mmHg 79%
    23:00 +26°C° 0.1 mm 1 m/S 699 mmHg 82%

    übermorgen, 24 April, Mittwoch

    Zeit Temperatur Niederschläge Wind Luftdruck Luftfeuchtigkeit
    00:00 +26°C° 0.1 mm 1 m/S 699 mmHg 86%
    01:00 +25°C° 0.1 mm 1 m/S 699 mmHg 89%
    02:00 +25°C° 0.8 mm 1 m/S 699 mmHg 92%
    03:00 +24°C° 0.8 mm 1 m/S 698 mmHg 95%
    04:00 +24°C° 0.8 mm 1 m/S 698 mmHg 98%
    05:00 +24°C° 0 mm 1 m/S 699 mmHg 97%
    06:00 +24°C° 0 mm 1 m/S 699 mmHg 97%
    07:00 +25°C° 0 mm 1 m/S 700 mmHg 96%
    08:00 +26°C° 0 mm 1 m/S 701 mmHg 86%
    09:00 +28°C° 0 mm 1 m/S 701 mmHg 77%
    10:00 +30°C° 0 mm 1 m/S 702 mmHg 67%
    11:00 +32°C° 0 mm 1 m/S 701 mmHg 60%
    12:00 +34°C° 0 mm 1 m/S 701 mmHg 52%
    13:00 +36°C° 0 mm 1 m/S 700 mmHg 45%
    14:00 +35°C° 0 mm 1 m/S 700 mmHg 48%
    15:00 +34°C° 0 mm 1 m/S 699 mmHg 52%
    16:00 +33°C° 0 mm 1 m/S 698 mmHg 56%
    17:00 +29°C° 0.3 mm 0 m/S 698 mmHg 63%
    18:00 +28°C° 0.3 mm 0 m/S 699 mmHg 69%
    19:00 +26°C° 0.3 mm 0 m/S 699 mmHg 76%
    20:00 +26°C° 0.1 mm 0 m/S 700 mmHg 79%
    21:00 +25°C° 0.1 mm 0 m/S 700 mmHg 82%
    22:00 +26°C° 0.1 mm 1 m/S 701 mmHg 86%
    23:00 +26°C° 0.4 mm 1 m/S 701 mmHg 89%

    25 April, Donnerstag

    Zeit Temperatur Niederschläge Wind Luftdruck Luftfeuchtigkeit
    00:00 +25°C° 0.4 mm 1 m/S 700 mmHg 92%
    01:00 +25°C° 0.4 mm 1 m/S 700 mmHg 95%
    02:00 +24°C° 0 mm 1 m/S 700 mmHg 96%
    03:00 +24°C° 0 mm 1 m/S 699 mmHg 97%
    04:00 +24°C° 0 mm 1 m/S 699 mmHg 98%
    05:00 +24°C° 0 mm 1 m/S 700 mmHg 97%
    06:00 +24°C° 0 mm 1 m/S 700 mmHg 95%
    07:00 +24°C° 0 mm 1 m/S 701 mmHg 94%
    08:00 +26°C° 0 mm 1 m/S 701 mmHg 84%
    09:00 +29°C° 0 mm 1 m/S 702 mmHg 74%
    10:00 +31°C° 0 mm 1 m/S 702 mmHg 63%
    11:00 +31°C° 0.2 mm 0 m/S 702 mmHg 56%
    12:00 +34°C° 0.2 mm 0 m/S 701 mmHg 48%
    13:00 +36°C° 0.2 mm 0 m/S 701 mmHg 41%
    14:00 +35°C° 0 mm 0 m/S 700 mmHg 40%
    15:00 +35°C° 0 mm 0 m/S 699 mmHg 39%
    16:00 +36°C° 0 mm 1 m/S 698 mmHg 38%
    17:00 +34°C° 0 mm 1 m/S 699 mmHg 47%
    18:00 +31°C° 0 mm 1 m/S 699 mmHg 56%
    19:00 +29°C° 0 mm 1 m/S 699 mmHg 65%
    20:00 +28°C° 0 mm 1 m/S 699 mmHg 69%
    21:00 +27°C° 0 mm 1 m/S 700 mmHg 74%
    22:00 +27°C° 0 mm 1 m/S 700 mmHg 78%
    23:00 +26°C° 0.9 mm 1 m/S 700 mmHg 84%

    26 April, Freitag

    Zeit Temperatur Niederschläge Wind Luftdruck Luftfeuchtigkeit
    00:00 +25°C° 0.9 mm 1 m/S 699 mmHg 90%
    01:00 +24°C° 0.9 mm 1 m/S 699 mmHg 96%
    02:00 +24°C° 0 mm 1 m/S 699 mmHg 97%
    03:00 +24°C° 0 mm 1 m/S 698 mmHg 98%
    04:00 +24°C° 0 mm 1 m/S 698 mmHg 98%
    05:00 +24°C° 0 mm 1 m/S 699 mmHg 97%
    06:00 +24°C° 0 mm 1 m/S 699 mmHg 96%
    07:00 +25°C° 0 mm 1 m/S 700 mmHg 95%
    08:00 +25°C° 0 mm 1 m/S 700 mmHg 91%
    09:00 +26°C° 0 mm 1 m/S 701 mmHg 86%
    10:00 +27°C° 0 mm 1 m/S 701 mmHg 81%
    11:00 +30°C° 0 mm 1 m/S 701 mmHg 70%
    12:00 +32°C° 0 mm 1 m/S 700 mmHg 59%
    13:00 +35°C° 0 mm 1 m/S 700 mmHg 48%
    14:00 +35°C° 0 mm 1 m/S 699 mmHg 47%
    15:00 +35°C° 0 mm 1 m/S 698 mmHg 46%
    16:00 +35°C° 0 mm 1 m/S 697 mmHg 45%
    17:00 +33°C° 0 mm 1 m/S 697 mmHg 53%
    18:00 +30°C° 0 mm 1 m/S 698 mmHg 61%
    19:00 +28°C° 0 mm 1 m/S 698 mmHg 70%
    20:00 +28°C° 0 mm 1 m/S 698 mmHg 73%
    21:00 +27°C° 0 mm 1 m/S 698 mmHg 76%
    22:00 +26°C° 0 mm 1 m/S 699 mmHg 80%
    23:00 +26°C° 0 mm 1 m/S 698 mmHg 82%

    27 April, Samstag

    Zeit Temperatur Niederschläge Wind Luftdruck Luftfeuchtigkeit
    00:00 +25°C° 0 mm 1 m/S 698 mmHg 83%
    01:00 +25°C° 0 mm 1 m/S 698 mmHg 85%
    02:00 +25°C° 0 mm 1 m/S 698 mmHg 87%
    03:00 +25°C° 0 mm 1 m/S 698 mmHg 89%
    04:00 +25°C° 0 mm 1 m/S 698 mmHg 91%
    05:00 +25°C° 0 mm 1 m/S 699 mmHg 90%
    06:00 +25°C° 0 mm 1 m/S 699 mmHg 89%
    07:00 +25°C° 0 mm 1 m/S 700 mmHg 87%
    08:00 +27°C° 0 mm 1 m/S 700 mmHg 81%
    09:00 +28°C° 0 mm 1 m/S 700 mmHg 74%
    10:00 +30°C° 0 mm 1 m/S 701 mmHg 67%
    11:00 +31°C° 0 mm 1 m/S 700 mmHg 61%
    12:00 +33°C° 0 mm 1 m/S 700 mmHg 55%
    13:00 +34°C° 0 mm 1 m/S 700 mmHg 49%
    14:00 +34°C° 0 mm 1 m/S 699 mmHg 52%
    15:00 +33°C° 0 mm 1 m/S 698 mmHg 54%
    16:00 +30°C° 0 mm 0 m/S 698 mmHg 56%
    17:00 +31°C° 0 mm 1 m/S 698 mmHg 62%
    18:00 +29°C° 0 mm 1 m/S 699 mmHg 67%
    19:00 +28°C° 0 mm 1 m/S 699 mmHg 73%
    20:00 +27°C° 0 mm 1 m/S 699 mmHg 77%
    21:00 +27°C° 0 mm 1 m/S 699 mmHg 81%
    22:00 +26°C° 0 mm 1 m/S 700 mmHg 84%
    23:00 +26°C° 0 mm 1 m/S 699 mmHg 86%
    Mehr zeigen